Tracking 30918 objects as of 2-Jul-2025
HD Live streaming from Space Station
objects crossing your sky now

STARLINK-3988

Track STARLINK-3988 now!
10-day predictions
STARLINK-3988 is classified as:


NORAD ID: 52625
Int'l Code: 2022-052AD
Perigee: 546.1 km
Apogee: 547.6 km
Inclination: 53.2 °
Period: 95.4 minutes
Semi major axis: 6917 km
RCS: Unknown
Launch date: May 14, 2022
Source: United States (US)
Launch site: AIR FORCE EASTERN TEST RANGE (AFETR)
Your satellite tracking list
COSMOS 1275 DEB
Track 1 satellite(s)




NASA's NSSDC Master Catalog

Two Line Element Set (TLE):
1 52625U 22052AD  25182.74301318  .00000275  00000-0  35357-4 0  9997
2 52625  53.2185 315.6639 0001091  85.3854 274.7263 15.08841158173107
Source of the keplerian elements: AFSPC